Погода в Мирном

Россия / Воронежская область     50°41′37″N   41°06′29″E
темп.,
°C
ветер,
м/с
пор.,
м/с
влажн.,
%
обл.,
%
осадки,
мм/ч
давл.,
гПа
погр.,
м
22 апреля, чт
чт2200:00+7ююз36855 0.0 1018103
03:00+6юз36865 0.0 1019100
06:00+6ююз37875 0.0 1020149
09:00+11зюз46665 0.0 1021708
12:00+15зюз575035 0.1 10211980
15:00+16зюз454188 0.1 10202309
18:00+13ююз476371 0.0 1021273
21:00+11ююз236880 0.0 102244
23 апреля, пт
пт2300:00+9ю3373100 0.0 102226
03:00+8ююв227934 0.0 102111
06:00+8ююв228370 0.0 102130
09:00+12ююв4573100 0.4 1021490
12:00+14ю566043 0.6 10201360
15:00+14ю566098 1.1 10191195
18:00+12ююв56696 0.1 1018739
21:00+8юв48875 0.1 1017149
24 апреля, сб
сб2400:00+7ююв4109216 0.0 1015195
03:00+8ююз41087100 0.0 1013334
06:00+8ююз4988100 0.0 1012367
09:00+9з7983100 0.3 10121012
12:00+6зсз578399 0.1 1014728
15:00+10з575794 0.3 10131587
18:00+9з6105941 1.1 10131047
21:00+5зюз37767 1.1 1014138
25 апреля, вс
вс2500:00+4юз3983100 0.0 1014186
03:00+4зюз71087100 0.4 1015738
06:00+4зюз61088100 0.1 1016726
09:00+5зсз6107718 0.1 1018950
12:00+9зсз7844100 0.1 10182381
15:00+10з6843100 0.1 10192278
18:00+9з46485 0.0 1019976
21:00+5юз22585 0.0 102019
26 апреля, пн
пн2600:00+4ююз33605 0.0 102029
03:00+3ююз346463 0.0 101944
06:00+3ю366666 0.0 1019116
09:00+9ю5748100 0.0 1018853
12:00+12ююз6741100 0.0 10171960
15:00+13ююз6739100 0.0 10142241
18:00+12ю584897 0.0 1013488
21:00+8з386898 0.1 1013302